Dewpoint
70 70 71 71 71 71 71 71 71 72 72 72 72 72 72 73 73 73 73 73 73 72 72 72 73 73 74 74 73 74 74 75 75 75 75 74 74 74 74 73 73 73 73 74 74 74 73 72 72 72 71 70 70 70 70 70 69 69 70 69 70 69 67 65 63 65 66 68 70 71 72 72 71 72 72 73 73 74 75 74 75 74 74 74 73
71 71 71 71 71 71 71 71 71 72 71 71 71 71 71 72 72 72 72 73 73 73 72 72 73 73 73 73 73 74 74 74 75 75 75 74 74 75 74 73 73 73 72 72 73 74 73 72 73 73 72 71 71 70 70 70 69 68 68 68 67 68 69 66 65 64 64 66 67 69 70 73 70 71 72 72 72 75 74 74 74 75 74 74 73
72 72 72 71 71 72 72 72 72 71 71 70 70 70 70 70 71 71 71 72 72 72 72 72 72 72 73 73 73 73 74 74 74 74 74 74 74 74 75 74 73 73 73 73 73 73 72 72 73 73 73 72 72 71 71 71 70 69 69 68 67 67 68 68 66 64 65 65 67 68 69 70 70 70 72 73 74 74 73 73 73 74 75 74 74
72 72 72 72 71 72 72 72 72 71 71 70 70 70 69 69 70 70 70 71 71 72 72 72 72 72 72 73 73 73 73 73 74 74 74 74 74 74 74 74 74 74 73 73 73 73 73 72 73 73 73 72 72 72 71 71 70 70 70 69 69 69 68 69 68 66 66 65 66 66 69 69 70 71 73 74 74 74 73 73 73 74 74 75 74
71 71 72 72 72 71 71 72 72 71 71 70 70 70 69 69 69 69 68 69 70 70 72 72 72 72 72 72 72 72 72 73 73 73 74 74 74 74 74 74 74 74 74 74 76 74 73 73 73 72 72 72 72 71 72 71 71 70 70 70 70 70 70 69 69 69 67 67 67 68 69 70 71 72 72 72 73 72 72 72 73 73 74 75 75
71 71 71 71 71 70 70 71 71 72 71 71 70 70 69 69 68 69 68 67 68 69 70 71 72 72 72 72 72 72 72 72 73 73 73 73 73 74 74 74 74 74 74 74 74 74 74 73 73 73 72 72 72 72 71 71 72 71 71 71 70 70 69 69 69 69 68 68 67 68 68 69 70 70 71 72 71 71 72 73 73 72 71 72 73
71 71 71 71 70 70 70 70 71 71 71 70 69 69 68 67 66 66 68 67 67 67 69 70 72 72 72 72 72 72 72 72 72 72 72 72 73 73 73 73 73 73 73 73 74 74 74 74 74 73 73 72 72 72 72 72 72 71 72 71 71 69 70 69 69 68 69 68 68 69 69 69 70 70 70 72 71 72 71 72 71 71 71 71 72
71 71 71 71 70 70 70 70 70 71 71 70 69 68 69 70 70 71 70 67 66 66 67 69 70 71 72 72 72 72 72 71 72 72 72 72 72 72 73 73 73 73 73 73 73 74 74 74 74 74 73 73 72 72 72 71 71 71 71 71 71 70 70 69 69 69 69 68 68 69 67 68 68 70 71 70 70 70 71 71 70 70 70 70 72
70 70 71 71 71 70 70 70 70 71 71 71 70 69 70 71 71 71 71 71 69 66 66 67 68 70 71 71 71 72 71 71 71 71 72 72 71 72 72 73 72 72 72 72 72 73 73 73 73 73 74 76 76 75 74 74 71 71 71 71 71 70 70 70 70 69 68 68 68 68 68 69 69 69 69 68 68 69 69 69 69 70 70 70 71
70 70 70 71 71 70 70 71 71 71 70 70 70 70 70 71 71 70 71 71 71 71 67 66 66 68 69 70 70 71 71 71 72 70 71 72 71 71 71 72 72 72 72 72 72 71 71 72 72 75 76 77 75 74 72 73 75 73 71 70 70 70 70 70 69 69 69 68 68 68 68 68 68 68 68 69 69 69 69 69 69 70 68 69 69
71 71 71 71 71 71 71 71 71 70 70 70 69 70 71 72 71 70 70 70 70 71 71 66 64 65 67 68 69 69 70 70 69 66 66 68 72 71 70 70 71 71 71 71 71 71 71 70 70 72 74 77 76 74 72 71 71 73 74 74 74 71 69 69 69 69 69 68 69 68 68 68 68 69 69 69 69 70 70 69 69 68 67 66 67
69 69 70 70 70 70 71 71 71 71 71 71 70 70 71 72 71 70 71 71 71 71 70 69 66 65 65 67 68 68 69 69 65 64 65 65 69 72 70 70 70 70 70 70 70 70 70 70 70 69 69 70 70 70 72 72 70 70 69 71 71 72 73 71 70 69 68 68 68 69 68 68 68 69 69 69 69 69 70 69 69 68 68 66 65
69 69 69 69 70 71 70 70 70 71 71 72 73 72 72 71 71 71 71 71 71 70 70 70 69 70 67 66 66 68 69 67 64 63 63 63 64 69 71 70 70 70 70 70 69 69 69 69 69 69 68 73 73 71 69 69 69 69 69 69 70 70 67 68 70 71 70 69 69 68 69 69 69 69 70 69 70 68 68 67 68 67 68 68 68
67 67 67 68 69 69 70 71 71 71 71 72 72 72 72 71 72 72 72 72 71 71 71 70 70 69 70 69 68 68 68 68 64 62 62 61 62 65 69 70 70 70 69 69 69 69 69 68 68 68 68 68 69 69 69 69 68 68 68 69 69 71 70 68 67 69 71 71 70 69 70 70 69 70 71 70 69 69 69 69 68 67 68 68 69
65 66 66 66 67 68 69 69 69 70 70 70 70 70 71 71 72 73 73 72 71 71 71 71 71 72 71 71 70 71 68 61 60 60 60 59 60 63 67 68 69 69 70 70 70 69 69 69 68 67 67 67 68 68 67 67 67 67 67 67 67 68 68 68 69 69 69 70 71 71 71 71 71 71 71 71 71 71 71 70 70 70 70 68 70
61 62 63 65 65 65 65 66 67 68 70 70 70 70 70 70 70 72 72 72 72 72 72 72 71 70 71 71 71 70 69 60 59 59 58 58 60 65 66 66 67 67 68 69 69 70 70 69 69 68 68 67 69 67 69 69 67 66 65 65 64 65 65 68 65 66 69 69 70 70 71 71 69 71 72 71 72 72 72 71 70 70 70 68 69
57 58 60 61 64 65 65 65 65 66 67 68 68 69 69 68 69 70 70 70 71 71 71 71 71 71 71 71 71 70 69 63 58 57 57 57 61 64 64 65 66 66 66 67 68 69 69 69 69 68 68 68 67 63 63 68 67 66 66 65 65 64 64 65 64 63 63 63 63 64 64 64 63 62 62 62 67 69 67 65 66 66 65 65 66
56 57 57 59 59 61 63 64 65 66 66 66 67 67 67 68 68 70 70 71 71 71 71 71 71 72 71 71 72 71 70 67 59 58 57 58 63 64 65 64 64 65 65 65 66 67 68 72 73 69 68 68 64 62 61 65 65 65 65 65 65 64 64 65 65 66 62 61 61 61 62 62 62 62 62 62 62 65 66 65 66 65 65 65 65
56 56 57 58 58 58 59 60 60 61 62 64 66 68 67 67 66 67 69 70 70 71 72 71 72 71 72 73 73 72 71 69 61 58 58 57 62 66 67 66 66 67 66 66 66 66 66 68 70 71 70 69 62 61 60 65 65 65 65 65 64 64 64 65 66 66 66 67 67 67 67 67 67 66 67 65 66 70 67 66 66 66 66 66 66
56 57 57 56 57 58 58 60 60 59 59 60 62 65 68 68 68 68 68 69 69 70 71 71 71 71 71 71 71 71 72 71 69 60 57 57 57 65 68 67 68 68 68 68 69 68 68 68 69 65 61 59 57 56 56 56 62 65 66 66 65 65 66 66 67 66 66 67 67 68 68 70 70 70 69 69 69 70 68 67 67 67 67 67 67
57 57 56 56 56 57 58 59 59 58 60 60 61 61 62 62 64 66 67 68 69 68 70 70 69 69 70 71 72 72 72 71 71 64 58 55 54 58 67 68 68 68 68 69 69 69 69 69 69 68 61 57 56 55 54 54 58 63 64 65 66 67 67 67 68 71 69 69 69 69 69 69 69 70 70 70 70 70 70 68 68 68 68 68 67
56 56 56 56 56 56 57 58 59 59 60 59 57 57 57 58 59 61 64 66 67 67 67 69 69 69 70 70 71 69 64 61 64 60 56 56 57 54 64 68 69 69 69 69 69 69 69 70 70 68 63 59 55 54 53 56 56 63 65 60 59 60 64 67 67 67 68 68 68 69 69 69 69 69 69 69 69 70 70 69 69 69 69 69 68
55 55 55 55 56 56 57 57 57 58 58 58 57 56 57 57 58 59 60 63 65 66 67 68 69 69 68 69 70 66 63 61 62 65 62 59 57 57 56 60 61 67 68 69 69 69 70 70 71 70 60 54 51 52 53 54 58 63 58 57 57 58 62 64 65 66 66 67 67 67 68 68 68 68 69 69 70 70 70 70 69 69 68 69 68
54 54 55 54 54 55 57 58 56 56 56 57 57 56 56 57 57 57 58 59 60 61 63 65 67 69 68 69 69 66 66 67 67 65 66 62 59 56 54 53 53 62 66 67 68 69 69 69 68 56 52 50 51 52 53 54 58 55 55 56 57 59 63 65 65 65 66 66 66 66 67 68 68 69 69 70 70 71 71 72 72 71 69 69 68
54 52 52 52 54 54 55 55 54 55 54 55 55 56 55 55 55 55 56 55 56 57 58 60 61 63 63 64 65 65 64 65 64 64 63 65 62 58 55 54 54 54 63 67 68 68 63 55 52 52 53 52 52 53 54 57 55 54 54 55 59 64 65 65 65 65 65 66 66 67 67 67 68 69 69 70 71 71 71 71 72 72 72 71 70
54 52 52 53 52 54 53 53 52 53 54 54 55 56 56 55 56 55 55 55 56 56 56 57 57 58 60 60 61 60 60 60 60 63 66 65 65 63 60 58 63 62 63 63 61 58 56 56 55 56 57 59 63 65 66 66 62 60 59 60 64 65 65 65 65 65 65 66 66 66 67 67 68 69 69 70 70 70 70 70 70 70 71 72 72
54 52 51 51 52 54 52 53 52 52 52 52 52 54 56 54 54 56 55 54 55 56 55 56 56 56 57 57 57 58 57 58 60 61 62 62 63 64 64 64 64 63 63 64 63 62 63 63 63 59 59 60 60 60 61 63 64 65 65 65 65 66 66 66 66 66 66 66 66 67 67 68 68 69 68 69 69 69 70 70 70 70 70 70 70
51 50 50 50 52 54 53 55 54 51 51 52 51 50 53 54 54 54 54 55 55 53 53 55 55 54 54 54 54 55 56 55 57 58 59 59 58 57 59 60 60 59 59 60 59 60 62 62 61 64 65 65 65 65 65 66 66 66 67 67 67 67 68 67 68 67 67 67 67 67 67 67 67 68 68 68 68 69 69 69 69 69 70 70 69
53 50 51 50 51 55 55 52 52 53 52 52 52 51 53 53 53 54 54 57 56 52 52 53 55 53 53 53 53 53 53 53 55 54 57 51 52 52 53 54 54 55 58 54 58 59 60 61 62 62 62 63 63 64 64 65 65 66 67 67 68 68 67 67 67 67 67 67 66 67 67 67 67 67 68 68 68 68 69 69 70 70 70 70 69
51 51 52 51 54 55 54 53 53 54 52 52 52 53 56 52 51 53 53 57 54 49 50 52 52 52 51 52 54 54 53 53 52 47 45 44 44 44 46 44 43 50 52 51 55 57 60 60 61 61 61 62 62 63 63 64 64 65 65 64 66 67 67 67 68 68 68 67 67 67 67 67 67 67 67 67 68 68 68 67 69 70 69 69 69
51 51 53 52 55 55 54 53 53 53 52 52 53 54 53 53 49 49 50 52 49 45 44 44 45 48 54 52 52 51 51 48 45 44 43 43 43 42 42 42 42 43 45 51 57 58 58 59 59 60 61 61 62 62 63 63 64 64 65 65 66 66 66 66 67 67 67 67 67 67 67 67 67 67 67 67 67 68 68 68 69 69 69 69 69
50 50 51 52 54 55 52 52 52 52 52 52 52 53 52 52 51 48 47 48 47 46 45 44 43 44 45 49 50 51 50 46 44 43 43 43 43 42 41 42 42 42 43 46 54 56 57 57 58 59 60 60 61 63 63 64 64 65 65 66 66 66 67 67 67 68 68 68 68 67 68 67 67 67 67 67 66 67 68 68 68 69 69 69 69
49 49 50 52 52 53 52 51 52 51 51 52 52 53 52 52 51 51 50 47 46 45 45 44 44 43 43 43 43 44 44 44 43 43 43 43 42 42 42 42 43 43 44 51 54 55 56 57 58 59 60 61 62 63 64 64 65 65 65 65 66 66 67 67 65 68 68 68 68 68 68 68 68 67 66 67 67 67 67 68 68 68 68 69 68
48 50 50 50 50 50 49 49 50 50 50 50 52 53 53 53 52 52 52 51 51 48 47 46 45 45 45 45 44 44 44 43 43 43 43 43 43 43 42 46 44 43 46 53 56 56 56 57 58 59 60 61 62 63 64 64 65 65 65 65 66 66 67 68 68 68 68 68 68 68 68 69 68 69 69 69 69 68 68 68 68 68 68 68 68
48 52 51 51 49 48 48 48 49 50 51 52 51 52 52 53 54 54 53 52 52 52 52 52 49 47 49 47 46 44 43 43 44 43 44 43 43 42 44 52 54 54 49 52 54 55 56 57 58 59 61 62 63 64 64 65 65 65 65 66 66 66 67 68 68 68 68 69 69 69 69 69 69 69 69 69 69 69 69 68 69 69 69 69 69
47 47 47 48 48 48 48 48 48 49 50 50 52 52 53 53 53 53 51 52 53 52 52 51 51 51 49 46 45 45 44 44 44 44 44 44 45 45 53 53 54 55 56 57 58 59 59 59 60 61 62 63 64 64 65 65 65 65 64 63 63 64 64 64 64 66 67 67 68 68 68 69 69 69 70 70 70 69 69 69 69 69 69 69 69
46 46 46 47 47 48 48 49 49 50 52 51 51 51 52 52 53 52 53 51 52 52 51 51 51 51 51 53 53 49 47 46 46 45 45 45 47 50 52 53 54 55 57 57 58 59 59 60 62 63 64 64 64 62 62 62 61 61 60 61 61 62 62 62 63 63 63 63 64 65 66 67 68 69 70 69 69 69 69 69 68 67 66 66 64
46 46 46 47 48 47 47 47 49 51 52 51 52 51 52 53 53 52 52 52 52 53 51 51 52 51 51 51 56 55 54 49 47 47 48 48 51 52 53 54 56 56 57 57 58 59 60 62 63 61 59 59 58 58 58 58 58 58 58 59 60 60 59 60 60 60 60 60 62 63 64 66 67 68 66 66 66 67 67 67 67 68 67 66 66
46 48 48 49 49 48 47 49 50 51 51 52 52 52 52 52 52 51 50 50 51 51 52 51 50 52 52 53 52 55 53 52 52 52 53 53 53 53 53 54 55 56 57 57 59 60 61 59 57 57 57 56 56 56 56 56 57 57 57 57 57 57 57 56 56 56 56 56 58 61 61 61 63 63 63 63 64 66 67 67 67 67 67 67 67
46 45 48 48 49 49 49 49 50 50 51 50 48 49 49 49 49 49 50 50 50 51 51 51 51 51 52 53 53 52 51 52 52 52 53 53 53 53 53 54 54 55 57 56 56 56 56 55 55 55 55 55 55 55 56 56 56 56 56 55 55 54 54 54 54 53 54 55 56 56 57 58 59 62 62 63 64 63 62 63 65 66 67 67 67
44 45 47 47 46 47 48 48 48 48 48 48 47 48 48 48 48 50 49 50 49 49 49 50 50 51 52 51 48 47 50 51 51 53 53 53 54 53 54 54 56 55 56 56 54 54 53 53 53 53 54 54 54 54 54 54 53 53 53 53 53 54 53 53 53 53 53 54 55 57 57 59 60 61 60 60 59 59 61 62 62 62 62 63 64
44 44 46 45 47 47 47 47 47 46 47 48 47 48 49 49 49 50 49 49 50 50 50 50 51 52 50 47 46 45 49 51 53 53 53 54 54 54 56 55 53 53 53 53 53 52 51 51 51 52 51 51 51 51 51 50 51 51 51 51 51 51 51 51 52 52 53 53 54 55 55 56 56 57 58 57 59 60 60 60 60 60 61 62 62
45 44 44 44 45 46 45 45 47 46 47 47 47 48 48 49 48 50 49 50 50 50 49 49 49 50 50 49 49 48 51 52 54 54 54 55 55 54 52 52 52 52 52 52 52 51 49 48 48 48 48 48 49 49 48 49 49 49 49 49 50 50 49 50 50 51 51 52 52 52 52 53 53 54 54 55 55 56 57 58 58 60 61 62 62
44 43 44 44 44 46 46 46 47 47 46 47 47 47 46 48 49 49 49 49 49 49 49 49 49 49 50 50 50 51 53 53 53 53 53 54 53 52 52 51 51 51 50 51 51 50 49 48 48 47 48 48 48 48 48 48 49 49 49 49 49 49 49 49 49 49 49 49 49 49 50 50 51 51 51 51 52 53 54 55 56 57 58 58 59
42 42 42 44 45 45 45 47 47 47 47 46 46 45 46 46 45 45 46 48 49 49 48 48 48 48 49 50 51 49 49 50 51 51 51 51 51 50 49 49 49 49 49 49 49 48 48 47 47 46 46 46 46 47 47 47 48 48 48 48 48 48 48 48 48 48 48 48 48 48 48 48 48 48 48 48 49 50 51 52 53 54 55 56 57
42 42 42 42 42 43 43 45 45 44 45 43 43 42 43 43 44 45 46 46 46 46 46 46 47 48 49 49 49 49 49 49 49 49 50 49 49 49 48 48 48 48 47 47 47 46 46 46 46 45 45 45 46 46 46 47 47 47 47 47 47 47 47 47 47 47 47 47 46 46 46 46 46 46 48 47 48 49 49 50 51 52 53 54 55
43 42 42 41 42 43 42 43 41 42 42 41 41 40 41 42 42 45 45 44 43 44 45 46 47 47 48 48 48 47 47 48 48 48 48 49 49 49 48 47 46 45 45 45 45 44 44 44 45 45 45 45 45 45 45 45 45 45 46 45 45 45 45 45 45 45 45 44 44 43 43 43 44 44 45 45 45 46 47 48 49 50 51 53 54
42 40 40 42 41 42 42 40 40 42 40 39 40 41 41 41 41 42 41 41 41 43 44 44 45 45 46 46 46 47 47 47 47 47 47 46 46 46 45 45 44 44 44 44 43 43 44 44 44 44 43 44 44 44 44 43 43 43 43 43 43 42 43 43 42 41 40 40 40 40 41 41 41 42 43 43 44 44 45 46 48 49 50 51 53
39 40 39 40 41 40 40 39 40 38 38 39 39 38 40 39 40 39 39 38 38 39 40 40 41 42 42 42 43 43 44 44 44 44 45 45 44 44 44 44 44 43 44 43 42 42 43 43 43 43 42 42 42 42 42 42 41 41 41 41 41 42 40 39 39 39 40 40 40 40 40 40 40 41 42 43 44 44 45 46 47 48 49 51 52
39 40 39 39 39 39 39 39 38 37 39 38 38 39 38 38 38 38 37 37 37 37 37 38 39 38 38 39 41 41 42 43 43 44 45 44 43 43 43 42 42 42 42 41 41 42 41 41 41 41 42 41 41 40 40 40 40 39 39 39 39 38 38 39 40 40 39 38 38 38 38 39 39 40 41 41 42 43 44 45 46 47 49 49 51
39 38 39 38 38 38 37 37 36 36 37 37 37 36 37 36 36 36 36 36 36 36 37 37 37 37 37 38 41 40 41 41 41 42 43 43 42 43 43 42 42 41 41 41 41 41 40 41 41 41 40 41 40 39 38 38 38 38 38 39 37 37 36 37 37 36 36 37 36 36 37 38 38 39 40 41 42 43 45 46 47 48 49 50 51